New Orleans NAS, LA

4:22 AM CDT on June 29, 2017 (GMT -0500)
New Orleans Naval Air Station

Weather History for KNBG - November, 2013

Change the Weather History Date:

Wednesday, November 20, 2013

  Actual Average Record
Temperature  
Mean Temperature 57 °F -  
Max Temperature 70 °F 68 °F 80 °F (1998)
Min Temperature 44 °F 51 °F 37 °F (2000)
Degree Days  
Heating Degree Days 8    
Growing Degree Days 7 (Base 50)    
Moisture  
Dew Point 51 °F    
Average Humidity 78    
Maximum Humidity 97    
Minimum Humidity 59    
Precipitation  
Precipitation 0.00 in - - ()
Sea Level Pressure  
Sea Level Pressure 30.09 in    
Wind  
Wind Speed 5 mph (ENE)    
Max Wind Speed 12 mph    
Max Gust Speed -    
Visibility 10 miles    
Events      
Averages and records for this station are not official NWS values.
T = Trace of Precipitation, MM = Missing Value Source: NWS Daily Summary

Daily Weather History Graph

Daily Weather History Graph

Search for Another Location

Airport or City:

Trip Planner

Search our weather history database for the weather conditions in past years. The results will help you decide how hot, cold, wet, or windy it might be!

Date:

Astronomy

Nov. 20, 2013 Rise Set
Actual Time 6:29 AM CST 5:02 PM CST
Civil Twilight 6:03 AM CST 5:27 PM CST
Nautical Twilight 5:34 AM CST 5:56 PM CST
Astronomical Twilight 5:06 AM CST 6:25 PM CST
Moon 7:45 PM CST (11/20) 8:54 AM CST (11/20)
Length of Visible Light 11h 23m
Length of Day
10h 32m
Waning Gibbous, 91% of the Moon is Illuminated
Nov 20
Waning Gibbous
Nov 25
Last Quarter
Dec 2
New
Dec 9
First Quarter
Dec 17
Full

Hourly Weather History & Observations

Time (CST) Temp. Windchill Dew Point Humidity Pressure Visibility Wind Dir Wind Speed Gust Speed Precip Events Conditions
12:55 AM 48.9 °F - 39.9 °F 71% 30.08 in 10.0 mi NNE 4.6 mph - N/A   Clear
1:55 AM 48.9 °F - 39.9 °F 71% 30.07 in 10.0 mi NNE 4.6 mph - N/A   Clear
2:55 AM 48.0 °F - 39.9 °F 74% 30.08 in 10.0 mi NNE 4.6 mph - N/A   Clear
3:55 AM 44.1 °F 42.5 °F 41.0 °F 89% 30.07 in 10.0 mi NE 3.5 mph - N/A   Clear
4:55 AM 45.0 °F - 42.1 °F 90% 30.08 in 10.0 mi Calm Calm - N/A   Clear
5:55 AM 46.0 °F 43.9 °F 41.0 °F 83% 30.09 in 10.0 mi NNE 4.6 mph - N/A   Clear
6:06 AM 46.4 °F 44.3 °F 41.0 °F 81% 30.09 in 10.0 mi NNE 4.6 mph - N/A   Scattered Clouds
6:55 AM 48.0 °F - 41.0 °F 77% 30.11 in 10.0 mi NNE 4.6 mph - N/A   Scattered Clouds
7:55 AM 52.0 °F - 44.1 °F 74% 30.12 in 10.0 mi NE 8.1 mph - N/A   Scattered Clouds
8:55 AM 57.0 °F - 46.0 °F 67% 30.13 in 10.0 mi ENE 9.2 mph - N/A   Scattered Clouds
9:55 AM 62.1 °F - 48.9 °F 62% 30.12 in 10.0 mi NNE 5.8 mph - N/A   Partly Cloudy
10:55 AM 64.9 °F - 52.0 °F 63% 30.11 in 10.0 mi East 5.8 mph - N/A   Partly Cloudy
11:55 AM 68.0 °F - 53.1 °F 59% 30.08 in 10.0 mi NE 5.8 mph - N/A   Partly Cloudy
12:55 PM 70.0 °F - 55.0 °F 59% 30.06 in 10.0 mi East 8.1 mph - N/A   Partly Cloudy
1:55 PM 70.0 °F - 55.9 °F 61% 30.04 in 10.0 mi ESE 6.9 mph - N/A   Scattered Clouds
2:55 PM 70.0 °F - 57.0 °F 63% 30.04 in 10.0 mi East 6.9 mph - N/A   Scattered Clouds
3:55 PM 66.9 °F - 57.0 °F 70% 30.06 in 10.0 mi ENE 11.5 mph - N/A   Scattered Clouds
4:55 PM 63.0 °F - 57.0 °F 81% 30.08 in 10.0 mi ENE 6.9 mph - N/A   Mostly Cloudy
5:55 PM 59.0 °F - 57.0 °F 93% 30.09 in 10.0 mi ENE 5.8 mph - N/A   Mostly Cloudy
6:55 PM 61.0 °F - 60.1 °F 97% 30.10 in 10.0 mi ENE 8.1 mph - N/A   Scattered Clouds
7:55 PM 61.0 °F - 60.1 °F 97% 30.11 in 10.0 mi East 4.6 mph - N/A   Scattered Clouds
8:55 PM 63.0 °F - 61.0 °F 93% 30.12 in 10.0 mi East 8.1 mph - N/A   Scattered Clouds
9:55 PM 63.0 °F - 61.0 °F 93% 30.12 in 10.0 mi East 5.8 mph - N/A   Scattered Clouds
10:55 PM 62.1 °F - 60.1 °F 93% 30.11 in 10.0 mi East 6.9 mph - N/A   Mostly Cloudy
11:55 PM 64.0 °F - 61.0 °F 90% 30.10 in 10.0 mi East 9.2 mph - N/A   Mostly Cloudy